Accueil
METAR-TAF:

METAR-TAF

Aéroports :

Albenga, Italie

Aéroport international de Villanova d'Albenga

latitude: 44-03N, longitude: 008-07E, altitude: 45 m

Observation

Le bulletin a été fait il y a 2 heures et 57 minutes, à 17:50 UTC
Vent 2 kt de direction variable
Température 14°C
Humidité 72%
Pression 1010 hPa
Visibilité 10 km ou plus
pas de nuages en-dessous de 1500 mètres et pas de cumulonimbus.

METAR: LIMG 221750Z VRB02KT CAVOK 14/09 Q1010

Heure: 22:47 (20:47 UTC)


TAF: absent

Observations et prévisions météorologiques de plus de 4000 aéroports (messages METAR et TAF).

Les stations disponibles sont représentées par des disques jaunes et rouges sur la carte.

Passer la souris dessus pour voir le nom de la station.

Cliquer dessus pour voir les observations et prévisions météorologiques.

Pour changer de carte: cliquez sur les boutons verts avec une croix noire pour zoomer, sur le bouton vert avec un tiret pour effectuer un zoom arrière, ou sur les flèches vertes pour les cartes adjacentes.


METAR-TAF: